Regional Weather Roundup
Issued by NWS

Home | Current Version | Previous Version | Text Only | Print | Product List | Glossary Off
Versions: 1 2 3 4 5 6 7 8 9 10 11 12 13 14 15 16 17 18 19 20 21 22 23 24 25 26 27 28 29 30 31 32 33 34 35 36 37 38 39 40 41 42 43 44 45 46 47 48 49 50

000
ASUS44 KMEG 250010
RWRTN
TENNESSEE HOURLY STATE WEATHER ROUNDUP
NATIONAL WEATHER SERVICE MEMPHIS TN
700 PM CDT FRI APR 24 2015

TNZ002-004-019-021-049-052-054-088>092-250100-
WEST TENNESSEE

CITY           SKY/WX    TMP DP  RH WIND       PRES   REMARKS
MEMPHIS INTL   LGT RAIN  57  53  86 SE8       29.84F
NWS MEMPHIS      N/A     56 N/A N/A MISG        N/A
JACKSON        LGT RAIN  55  51  86 VRB3      29.88F
DYERSBURG      CLOUDY    55  39  54 SE5       29.88F
UNION CITY     MOCLDY    55  32  41 SE13      29.85F
PARIS          MOCLDY    54  46  76 N7        29.92S
LEXINGTON      PTCLDY    55  52  88 SE6       29.89F
SAVANNAH       MOCLDY    55  32  41 CALM      29.91F
$$

TNZ008-025-027-028-033-062-065-066-250100-
NORTH MIDDLE TENNESSEE

CITY           SKY/WX    TMP DP  RH WIND       PRES   REMARKS
NASHVILLE      CLOUDY    63  38  39 CALM      29.96S
CLARKSVILLE    CLOUDY    58  43  57 SE6       29.91F
SMYRNA         CLOUDY    62  44  51 SW5       29.97S
COOKEVILLE     MOCLDY    61  45  55 CALM      29.94F
CROSSVILLE     CLOUDY    61  32  33 S5        29.99S
$$

TNZ061-075-076-078-094-096-097-250100-
SOUTH MIDDLE TENNESSEE

CITY           SKY/WX    TMP DP  RH WIND       PRES   REMARKS
FAYETTEVILLE     N/A     63  39  42 W3        29.97S
TULLAHOMA      CLOUDY    64  37  36 NW3       29.97S
WINCHESTER     PTCLDY    66  48  52 W3        29.96R
MCMINNVILLE    CLOUDY    63  45  51 CALM      29.96S
COLUMBIA       CLOUDY    55  32  41 CALM      29.94F
SHELBYVILLE    CLOUDY    61  48  63 CALM      29.97F
$$

TNZ017-018-042-046-047-250100-
NORTHEAST TENNESSEE

CITY           SKY/WX    TMP DP  RH WIND       PRES   REMARKS
TRI CITIES     CLOUDY    60  31  33 S5        29.99S
ELIZABETHTON   CLEAR     52  37  58 NW3       30.00S
$$

TNZ012-013-036-069-073-074-250100-
CENTRAL EAST TENNESSEE

CITY           SKY/WX    TMP DP  RH WIND       PRES   REMARKS
KNOXVILLE      CLOUDY    63  30  28 CALM      29.97F
OAK RIDGE      CLOUDY    64  31  28 S3        29.99S
GATLINBURG     CLEAR     61  30  31 CALM      29.97F
MORRISTOWN     CLEAR     61  37  41 CALM      29.99F
$$

TNZ083-085-099-250100-
SOUTHEAST TENNESSEE

CITY           SKY/WX    TMP DP  RH WIND       PRES   REMARKS
CHATTANOOGA    CLOUDY    67  37  33 N9        29.96F
$$

SKY/WX REPORTED AS FAIR MEANS FEW OR NO CLOUDS BELOW
12 THOUSAND FEET.




USA.gov is the U.S. government's official web portal to all federal, state and local government web resources and services.